Weather History for Murray, KY

Change the Weather History Date:

Wednesday, October 2, 2013

  Actual Average (KPAH) Record (KPAH)
Temperature  
Mean Temperature 73 °F 63 °F  
Max Temperature 80 °F 76 °F 93 °F (1953)
Min Temperature 66 °F 51 °F 34 °F (1958)
Degree Days  
Heating Degree Days 0 4  
Month to date heating degree days 8  
Since 1 July heating degree days 47  
Cooling Degree Days 8 2  
Month to date cooling degree days 5  
Year to date cooling degree days 1505  
Growing Degree Days 23 (Base 50)    
Moisture  
Dew Point 68 °F    
Average Humidity 90    
Maximum Humidity 100    
Minimum Humidity 65    
Precipitation  
Precipitation 0.01 in 0.14 in 1.55 in (1945)
Month to date precipitation 0.27  
Year to date precipitation 36.50  
Snow  
Snow 0.00 in 0.00 in 0.00 in (2002)
Month to date snowfall 0.0  
Since 1 July snowfall 0.0  
Since 1 September snowfall 0.0  
Snow Depth -    
Sea Level Pressure  
Sea Level Pressure 30.08 in    
Wind  
Wind Speed 5 mph (SSW)    
Max Wind Speed 13 mph    
Max Gust Speed 18 mph    
Visibility 9 miles    
Events      
T = Trace of Precipitation, MM = Missing Value Source: NWS Daily Summary

Daily Weather History Graph

Daily Weather History Graph

Search for Another Location

Airport:

Trip Planner

Search our weather history database for the weather conditions in past years. The results will help you decide how hot, cold, wet, or windy it might be!

Date:

Astronomy

Oct. 02, 2013 Rise Set
Actual Time 6:49 AM CDT 6:35 PM CDT
Civil Twilight 6:23 AM CDT 7:00 PM CDT
Nautical Twilight 5:54 AM CDT 7:30 PM CDT
Astronomical Twilight 5:23 AM CDT 8:00 PM CDT
Moon 4:25 AM CDT 5:08 PM CDT
Length of Visible Light 12h 36m
Length of Day
11h 45m
Waning Crescent, 6% of the Moon is Illuminated
Oct 2
Waning Crescent
Oct 4
New
Oct 11
First Quarter
Oct 18
Full
Oct 26
Last Quarter

Hourly Weather History & Observations

Time (CDT) Temp. Heat Index Dew Point Humidity Pressure Visibility Wind Dir Wind Speed Gust Speed Precip Events Conditions
12:15 AM 68.0 °F - 68.0 °F 100% 30.07 in 8.0 mi South 3.5 mph - N/A   Clear
12:35 AM 68.0 °F - 68.0 °F 100% 30.07 in 8.0 mi South 3.5 mph - N/A   Clear
12:55 AM 68.0 °F - 68.0 °F 100% 30.07 in 9.0 mi South 3.5 mph - N/A   Clear
1:15 AM 68.0 °F - 68.0 °F 100% 30.07 in 7.0 mi SSW 3.5 mph - N/A   Clear
1:35 AM 68.0 °F - 68.0 °F 100% 30.07 in 9.0 mi South 3.5 mph - N/A   Clear
1:55 AM 68.0 °F - 68.0 °F 100% 30.07 in 8.0 mi South 3.5 mph - N/A   Clear
2:15 AM 68.0 °F - 68.0 °F 100% 30.07 in 10.0 mi SW 3.5 mph - N/A   Clear
2:35 AM 69.8 °F - 68.0 °F 94% 30.07 in 10.0 mi SSW 5.8 mph - N/A   Clear
2:55 AM 69.8 °F - 68.0 °F 94% 30.07 in 10.0 mi SSW 5.8 mph - N/A   Clear
3:15 AM 69.8 °F - 68.0 °F 94% 30.07 in 10.0 mi SW 5.8 mph - N/A   Clear
3:35 AM 69.8 °F - 68.0 °F 94% 30.07 in 10.0 mi SSW 5.8 mph - N/A   Clear
3:55 AM 69.8 °F - 68.0 °F 94% 30.07 in 10.0 mi SSW 4.6 mph - N/A   Clear
4:15 AM 69.8 °F - 68.0 °F 94% 30.07 in 10.0 mi SSW 3.5 mph - N/A   Clear
4:35 AM 69.8 °F - 68.0 °F 94% 30.07 in 10.0 mi SSW 3.5 mph - N/A   Clear
4:55 AM 68.0 °F - 68.0 °F 100% 30.08 in 10.0 mi SSW 3.5 mph - N/A   Clear
5:15 AM 68.0 °F - 68.0 °F 100% 30.08 in 8.0 mi Calm Calm - N/A   Clear
5:35 AM 68.0 °F - 68.0 °F 100% 30.08 in 9.0 mi South 3.5 mph - N/A   Clear
5:55 AM 68.0 °F - 68.0 °F 100% 30.09 in 10.0 mi SSW 3.5 mph - N/A   Clear
6:15 AM 68.0 °F - 68.0 °F 100% 30.09 in 10.0 mi SSW 4.6 mph - N/A   Clear
6:35 AM 68.0 °F - 68.0 °F 100% 30.10 in 10.0 mi SSW 4.6 mph - N/A   Clear
6:55 AM 68.0 °F - 68.0 °F 100% 30.10 in 10.0 mi SSW 4.6 mph - N/A   Clear
7:15 AM 68.0 °F - 68.0 °F 100% 30.10 in 8.0 mi South 4.6 mph - N/A   Clear
7:35 AM 68.0 °F - 68.0 °F 100% 30.11 in 7.0 mi South 5.8 mph - N/A   Clear
7:55 AM 68.0 °F - 68.0 °F 100% 30.11 in 8.0 mi South 4.6 mph - N/A   Clear
8:15 AM 71.6 °F - 68.0 °F 88% 30.11 in 10.0 mi SSW 5.8 mph - N/A   Clear
8:35 AM 71.6 °F - 68.0 °F 88% 30.11 in 10.0 mi SW 5.8 mph - N/A   Clear
8:55 AM 71.6 °F - 68.0 °F 88% 30.12 in 10.0 mi SSW 6.9 mph - N/A   Clear
9:15 AM 73.4 °F - 68.0 °F 83% 30.12 in 10.0 mi SW 5.8 mph - N/A   Clear
9:35 AM 73.4 °F - 68.0 °F 83% 30.12 in 10.0 mi SSW 4.6 mph - N/A   Clear
9:55 AM 75.2 °F - 68.0 °F 78% 30.12 in 10.0 mi SW 4.6 mph - N/A   Clear
10:15 AM 75.2 °F - 68.0 °F 78% 30.12 in 10.0 mi SW 6.9 mph - N/A   Clear
10:35 AM 75.2 °F - 68.0 °F 78% 30.12 in 10.0 mi SW 4.6 mph - N/A   Unknown
10:55 AM 75.2 °F - 68.0 °F 78% 30.12 in 10.0 mi WSW 6.9 mph - N/A   Unknown
11:15 AM 77.0 °F - 68.0 °F 74% 30.11 in 10.0 mi SW 4.6 mph - N/A   Clear
11:35 AM 77.0 °F - 69.8 °F 78% 30.11 in 10.0 mi SW 6.9 mph - N/A   Clear
11:55 AM 78.8 °F - 69.8 °F 74% 30.11 in 10.0 mi SW 8.1 mph - N/A   Clear
12:15 PM 78.8 °F - 69.8 °F 74% 30.10 in 10.0 mi SW 9.2 mph - N/A   Clear
12:35 PM 78.8 °F - 69.8 °F 74% 30.10 in 10.0 mi SW 8.1 mph - N/A   Clear
12:55 PM 78.8 °F - 68.0 °F 69% 30.09 in 10.0 mi SW 8.1 mph - N/A   Clear
1:15 PM 80.6 °F 83.2 °F 68.0 °F 65% 30.09 in 10.0 mi WSW 11.5 mph - N/A   Clear
1:35 PM 80.6 °F 83.2 °F 68.0 °F 65% 30.08 in 10.0 mi SW 9.2 mph - N/A   Clear
1:55 PM 77.0 °F - 69.8 °F 78% 30.08 in 7.0 mi SW 12.7 mph 18.4 mph N/A   Clear
2:15 PM 73.4 °F - 69.8 °F 88% 30.07 in 10.0 mi South 6.9 mph - N/A   Clear
2:35 PM 75.2 °F - 71.6 °F 89% 30.06 in 10.0 mi South 3.5 mph - N/A   Clear
2:55 PM 75.2 °F - 71.6 °F 89% 30.06 in 10.0 mi SSW 5.8 mph - N/A   Clear
3:15 PM 75.2 °F - 71.6 °F 89% 30.06 in 10.0 mi SW 5.8 mph - N/A   Clear
3:35 PM 77.0 °F - 71.6 °F 83% 30.06 in 10.0 mi SSW 4.6 mph - N/A   Clear
3:55 PM 77.0 °F - 68.0 °F 74% 30.05 in 10.0 mi SSW 5.8 mph - N/A   Clear
4:15 PM 77.0 °F - 68.0 °F 74% 30.05 in 10.0 mi SSW 5.8 mph - N/A   Clear
4:35 PM 77.0 °F - 68.0 °F 74% 30.05 in 10.0 mi SSW 4.6 mph - N/A   Clear
4:55 PM 77.0 °F - 68.0 °F 74% 30.05 in 10.0 mi SSW 4.6 mph - N/A   Clear
5:15 PM 75.2 °F - 68.0 °F 78% 30.05 in 10.0 mi South 4.6 mph - N/A   Unknown
5:35 PM 75.2 °F - 68.0 °F 78% 30.06 in 10.0 mi SW 8.1 mph - N/A   Unknown
5:55 PM 73.4 °F - 64.4 °F 73% 30.06 in 10.0 mi SSW 10.4 mph - N/A   Mostly Cloudy
6:15 PM 68.0 °F - 66.2 °F 94% 30.06 in 5.0 mi South 5.8 mph - 0.01 in   Mostly Cloudy
6:35 PM 68.0 °F - 68.0 °F 100% 30.06 in 10.0 mi Calm Calm - 0.01 in   Scattered Clouds
6:55 PM 68.0 °F - 68.0 °F 100% 30.06 in 10.0 mi North 3.5 mph - 0.01 in   Partly Cloudy
7:15 PM 68.0 °F - 68.0 °F 100% 30.06 in 10.0 mi Calm Calm - N/A   Scattered Clouds
7:35 PM 68.0 °F - 68.0 °F 100% 30.06 in 10.0 mi Calm Calm - N/A   Mostly Cloudy
7:55 PM 68.0 °F - 68.0 °F 100% 30.06 in 10.0 mi Calm Calm - N/A   Mostly Cloudy
8:15 PM 66.2 °F - 66.2 °F 100% 30.07 in 8.0 mi Calm Calm - N/A   Partly Cloudy
8:35 PM 66.2 °F - 66.2 °F 100% 30.07 in 6.0 mi Calm Calm - N/A   Clear
8:55 PM 68.0 °F - 68.0 °F 100% 30.07 in 8.0 mi SE 4.6 mph - N/A   Scattered Clouds
9:15 PM 68.0 °F - 68.0 °F 100% 30.08 in 5.0 mi SE 4.6 mph - N/A   Partly Cloudy
9:35 PM 68.0 °F - 68.0 °F 100% 30.08 in 4.0 mi SSE 5.8 mph - N/A   Partly Cloudy
9:55 PM 68.0 °F - 68.0 °F 100% 30.08 in 5.0 mi SE 3.5 mph - N/A   Partly Cloudy
10:15 PM 68.0 °F - 68.0 °F 100% 30.08 in 3.0 mi SE 3.5 mph - N/A   Partly Cloudy
10:35 PM 68.0 °F - 68.0 °F 100% 30.08 in 3.0 mi SSE 3.5 mph - N/A   Clear
10:55 PM 68.0 °F - 68.0 °F 100% 30.07 in 4.0 mi Calm Calm - N/A   Clear
11:15 PM 68.0 °F - 68.0 °F 100% 30.07 in 4.0 mi SSE 3.5 mph - N/A   Clear
11:35 PM 68.0 °F - 68.0 °F 100% 30.07 in 8.0 mi South 5.8 mph - N/A   Partly Cloudy
11:55 PM 68.0 °F - 68.0 °F 100% 30.06 in 7.0 mi SSE 4.6 mph - N/A   Mostly Cloudy